Time,TemperatureF,DewpointF,PressureIn,WindDirection,WindDirectionDegrees,WindSpeedMPH,WindSpeedGustMPH,Humidity,HourlyPrecipIn,Conditions,Clouds,dailyrainin,SoftwareType,DateUTC
2013-10-26 00:01:00,30.7,28.9,30.37,West,271,0.0,0.0,93,0.00,,,0.00,Wunderground v.1.15,2013-10-26 04:01:00,
2013-10-26 00:02:00,30.7,28.9,30.37,West,271,0.0,0.0,93,0.00,,,0.00,Wunderground v.1.15,2013-10-26 04:02:00,
2013-10-26 00:04:00,30.6,28.8,30.37,West,271,0.0,0.0,93,0.00,,,0.00,Wunderground v.1.15,2013-10-26 04:04:00,
2013-10-26 00:05:00,30.5,28.7,30.36,West,271,0.0,0.0,93,0.00,,,0.00,Wunderground v.1.15,2013-10-26 04:05:00,
2013-10-26 00:10:00,30.4,28.9,30.36,West,271,0.0,0.0,94,0.00,,,0.00,Wunderground v.1.15,2013-10-26 04:10:00,
2013-10-26 00:12:00,30.4,28.9,30.36,West,271,0.0,0.0,94,0.00,,,0.00,Wunderground v.1.15,2013-10-26 04:12:00,
2013-10-26 00:18:00,30.4,28.9,30.36,WSW,251,0.0,0.0,94,0.00,,,0.00,Wunderground v.1.15,2013-10-26 04:18:00,
2013-10-26 00:23:00,30.4,28.9,30.36,SW,232,0.0,1.0,94,0.00,,,0.00,Wunderground v.1.15,2013-10-26 04:23:00,
2013-10-26 00:28:00,30.2,28.7,30.36,WSW,239,0.0,1.0,94,0.00,,,0.00,Wunderground v.1.15,2013-10-26 04:28:00,
2013-10-26 00:33:00,30.1,28.8,30.36,WSW,239,0.0,0.0,95,0.00,,,0.00,Wunderground v.1.15,2013-10-26 04:33:00,
2013-10-26 00:38:00,30.1,28.8,30.36,WSW,239,0.0,0.0,95,0.00,,,0.00,Wunderground v.1.15,2013-10-26 04:38:00,
2013-10-26 00:44:00,29.9,28.6,30.36,WSW,239,0.0,0.0,95,0.00,,,0.00,Wunderground v.1.15,2013-10-26 04:44:00,
2013-10-26 00:49:00,29.5,28.2,30.36,WSW,239,0.0,0.0,95,0.00,,,0.00,Wunderground v.1.15,2013-10-26 04:49:00,
2013-10-26 00:54:00,29.4,28.1,30.35,WSW,239,0.0,0.0,95,0.00,,,0.00,Wunderground v.1.15,2013-10-26 04:54:00,
2013-10-26 00:59:00,29.2,27.9,30.35,WSW,239,0.0,0.0,95,0.00,,,0.00,Wunderground v.1.15,2013-10-26 04:59:00,
2013-10-26 01:04:00,28.8,27.5,30.35,WSW,238,0.0,0.0,95,0.00,,,0.00,Wunderground v.1.15,2013-10-26 05:04:00,
2013-10-26 01:09:00,28.9,27.9,30.35,WSW,239,0.0,0.0,96,0.00,,,0.00,Wunderground v.1.15,2013-10-26 05:09:00,
2013-10-26 01:14:00,29.1,28.1,30.35,WSW,239,0.0,0.0,96,0.00,,,0.00,Wunderground v.1.15,2013-10-26 05:14:00,
2013-10-26 01:19:00,29.1,28.1,30.35,WSW,238,0.0,1.0,96,0.00,,,0.00,Wunderground v.1.15,2013-10-26 05:19:00,
2013-10-26 01:24:00,29.0,28.0,30.35,WSW,238,0.0,0.0,96,0.00,,,0.00,Wunderground v.1.15,2013-10-26 05:24:00,
2013-10-26 01:29:00,28.8,27.8,30.34,WSW,238,0.0,0.0,96,0.00,,,0.00,Wunderground v.1.15,2013-10-26 05:29:00,
2013-10-26 01:34:00,28.8,27.8,30.34,WSW,238,0.0,0.0,96,0.00,,,0.00,Wunderground v.1.15,2013-10-26 05:34:00,
2013-10-26 01:39:00,28.7,27.7,30.34,WSW,237,0.0,0.0,96,0.00,,,0.00,Wunderground v.1.15,2013-10-26 05:39:00,
2013-10-26 01:45:00,28.7,27.7,30.34,SW,236,0.0,0.0,96,0.00,,,0.00,Wunderground v.1.15,2013-10-26 05:45:00,
2013-10-26 01:50:00,28.7,27.7,30.34,SW,236,1.0,1.0,96,0.00,,,0.00,Wunderground v.1.15,2013-10-26 05:50:00,
2013-10-26 01:55:00,28.6,27.6,30.34,SW,236,0.0,1.0,96,0.00,,,0.00,Wunderground v.1.15,2013-10-26 05:55:00,
2013-10-26 02:00:00,28.6,27.9,30.34,SW,236,0.0,0.0,97,0.00,,,0.00,Wunderground v.1.15,2013-10-26 06:00:00,
2013-10-26 02:05:00,28.4,27.4,30.34,SW,236,0.0,0.0,96,0.00,,,0.00,Wunderground v.1.15,2013-10-26 06:05:00,
2013-10-26 02:10:00,28.0,27.0,30.34,SW,236,0.0,0.0,96,0.00,,,0.00,Wunderground v.1.15,2013-10-26 06:10:00,
2013-10-26 02:15:00,27.6,26.6,30.34,SW,236,0.0,0.0,96,0.00,,,0.00,Wunderground v.1.15,2013-10-26 06:15:00,
2013-10-26 02:20:00,27.2,26.2,30.34,SW,236,0.0,0.0,96,0.00,,,0.00,Wunderground v.1.15,2013-10-26 06:20:00,
2013-10-26 02:25:00,27.1,26.1,30.33,SW,236,0.0,0.0,96,0.00,,,0.00,Wunderground v.1.15,2013-10-26 06:25:00,
2013-10-26 02:30:00,27.0,26.3,30.33,SW,236,0.0,0.0,97,0.00,,,0.00,Wunderground v.1.15,2013-10-26 06:30:00,
2013-10-26 02:35:00,27.5,26.8,30.33,SW,236,0.0,0.0,97,0.00,,,0.00,Wunderground v.1.15,2013-10-26 06:35:00,
2013-10-26 02:40:00,27.7,27.0,30.33,SW,236,0.0,0.0,97,0.00,,,0.00,Wunderground v.1.15,2013-10-26 06:40:00,
2013-10-26 02:45:00,27.9,27.4,30.34,SW,236,0.0,0.0,98,0.00,,,0.00,Wunderground v.1.15,2013-10-26 06:45:00,
2013-10-26 02:50:00,27.8,27.1,30.33,SW,236,0.0,0.0,97,0.00,,,0.00,Wunderground v.1.15,2013-10-26 06:50:00,
2013-10-26 02:55:00,27.8,27.3,30.33,SW,236,0.0,0.0,98,0.00,,,0.00,Wunderground v.1.15,2013-10-26 06:55:00,
2013-10-26 03:00:00,27.9,27.4,30.33,WSW,237,0.0,0.0,98,0.00,,,0.00,Wunderground v.1.15,2013-10-26 07:00:00,
2013-10-26 03:05:00,28.0,27.5,30.33,WSW,253,0.0,1.0,98,0.00,,,0.00,Wunderground v.1.15,2013-10-26 07:05:00,
2013-10-26 03:10:00,28.2,27.7,30.33,WSW,253,0.0,0.0,98,0.00,,,0.00,Wunderground v.1.15,2013-10-26 07:10:00,
2013-10-26 03:15:00,28.4,27.9,30.33,NNW,345,0.0,1.0,98,0.00,,,0.00,Wunderground v.1.15,2013-10-26 07:15:00,
2013-10-26 03:20:00,28.4,27.9,30.33,NNW,345,0.0,0.0,98,0.00,,,0.00,Wunderground v.1.15,2013-10-26 07:20:00,
2013-10-26 03:25:00,28.3,27.6,30.33,NNW,345,0.0,0.0,97,0.00,,,0.00,Wunderground v.1.15,2013-10-26 07:25:00,
2013-10-26 03:30:00,28.4,27.7,30.33,North,357,0.0,0.0,97,0.00,,,0.00,Wunderground v.1.15,2013-10-26 07:30:00,
2013-10-26 03:35:00,28.4,27.7,30.33,West,263,0.0,1.0,97,0.00,,,0.00,Wunderground v.1.15,2013-10-26 07:35:00,
2013-10-26 03:40:00,28.3,27.6,30.33,West,263,0.0,0.0,97,0.00,,,0.00,Wunderground v.1.15,2013-10-26 07:40:00,
2013-10-26 03:45:00,28.1,27.4,30.33,SW,231,1.0,3.0,97,0.00,,,0.00,Wunderground v.1.15,2013-10-26 07:45:00,
2013-10-26 03:50:00,27.8,27.1,30.33,WSW,252,1.0,1.0,97,0.00,,,0.00,Wunderground v.1.15,2013-10-26 07:50:00,
2013-10-26 03:55:00,27.8,27.1,30.32,WSW,252,1.0,1.0,97,0.00,,,0.00,Wunderground v.1.15,2013-10-26 07:55:00,
2013-10-26 04:00:00,28.0,27.5,30.32,West,280,0.0,0.0,98,0.00,,,0.00,Wunderground v.1.15,2013-10-26 08:00:00,
2013-10-26 04:05:00,27.9,27.4,30.32,West,280,0.0,0.0,98,0.00,,,0.00,Wunderground v.1.15,2013-10-26 08:05:00,
2013-10-26 04:10:00,27.9,27.4,30.32,SW,217,0.0,0.0,98,0.00,,,0.00,Wunderground v.1.15,2013-10-26 08:10:00,
2013-10-26 04:15:00,27.9,27.4,30.32,SW,217,0.0,0.0,98,0.00,,,0.00,Wunderground v.1.15,2013-10-26 08:15:00,
2013-10-26 04:20:00,27.9,27.4,30.33,WSW,243,0.0,1.0,98,0.00,,,0.00,Wunderground v.1.15,2013-10-26 08:20:00,
2013-10-26 04:25:00,27.8,27.3,30.33,WSW,250,0.0,1.0,98,0.00,,,0.00,Wunderground v.1.15,2013-10-26 08:25:00,
2013-10-26 04:30:00,27.7,27.2,30.33,WSW,250,0.0,0.0,98,0.00,,,0.00,Wunderground v.1.15,2013-10-26 08:30:00,
2013-10-26 04:36:00,27.6,27.1,30.33,WSW,250,0.0,0.0,98,0.00,,,0.00,Wunderground v.1.15,2013-10-26 08:36:00,
2013-10-26 04:41:00,27.5,27.0,30.32,WSW,250,0.0,0.0,98,0.00,,,0.00,Wunderground v.1.15,2013-10-26 08:41:00,
2013-10-26 04:46:00,27.5,27.0,30.32,WSW,250,0.0,1.0,98,0.00,,,0.00,Wunderground v.1.15,2013-10-26 08:46:00,
2013-10-26 04:51:00,27.3,26.8,30.32,WSW,250,0.0,0.0,98,0.00,,,0.00,Wunderground v.1.15,2013-10-26 08:51:00,
2013-10-26 04:56:00,27.1,26.4,30.33,WSW,250,0.0,0.0,97,0.00,,,0.00,Wunderground v.1.15,2013-10-26 08:56:00,
2013-10-26 05:01:00,26.8,26.3,30.33,WSW,250,0.0,0.0,98,0.00,,,0.00,Wunderground v.1.15,2013-10-26 09:01:00,
2013-10-26 05:06:00,26.6,26.1,30.32,WSW,250,0.0,0.0,98,0.00,,,0.00,Wunderground v.1.15,2013-10-26 09:06:00,
2013-10-26 05:11:00,26.6,26.1,30.32,WSW,250,0.0,0.0,98,0.00,,,0.00,Wunderground v.1.15,2013-10-26 09:11:00,
2013-10-26 05:16:00,26.4,25.9,30.32,WSW,250,0.0,0.0,98,0.00,,,0.00,Wunderground v.1.15,2013-10-26 09:16:00,
2013-10-26 05:21:00,26.2,25.5,30.32,WSW,250,0.0,0.0,97,0.00,,,0.00,Wunderground v.1.15,2013-10-26 09:21:00,
2013-10-26 05:26:00,26.0,25.5,30.32,WSW,250,0.0,0.0,98,0.00,,,0.00,Wunderground v.1.15,2013-10-26 09:26:00,
2013-10-26 05:31:00,26.1,25.6,30.32,WSW,250,0.0,0.0,98,0.00,,,0.00,Wunderground v.1.15,2013-10-26 09:31:00,
2013-10-26 05:36:00,26.2,25.7,30.32,WSW,250,0.0,0.0,98,0.00,,,0.00,Wunderground v.1.15,2013-10-26 09:36:00,
2013-10-26 05:41:00,26.5,26.0,30.32,WSW,250,0.0,0.0,98,0.00,,,0.00,Wunderground v.1.15,2013-10-26 09:41:00,
2013-10-26 05:46:00,26.6,26.1,30.33,WSW,250,0.0,0.0,98,0.00,,,0.00,Wunderground v.1.15,2013-10-26 09:46:00,
2013-10-26 05:51:00,26.6,26.1,30.33,WSW,250,0.0,0.0,98,0.00,,,0.00,Wunderground v.1.15,2013-10-26 09:51:00,
2013-10-26 05:56:00,26.5,26.0,30.33,WSW,250,0.0,0.0,98,0.00,,,0.00,Wunderground v.1.15,2013-10-26 09:56:00,
2013-10-26 06:01:00,26.8,26.3,30.33,WSW,250,0.0,0.0,98,0.00,,,0.00,Wunderground v.1.15,2013-10-26 10:01:00,
2013-10-26 06:06:00,27.0,26.5,30.33,WSW,250,0.0,0.0,98,0.00,,,0.00,Wunderground v.1.15,2013-10-26 10:06:00,
2013-10-26 06:11:00,27.2,26.7,30.33,WSW,250,0.0,0.0,98,0.00,,,0.00,Wunderground v.1.15,2013-10-26 10:11:00,
2013-10-26 06:16:00,27.3,26.8,30.33,WSW,250,0.0,0.0,98,0.00,,,0.00,Wunderground v.1.15,2013-10-26 10:16:00,
2013-10-26 06:21:00,27.4,26.9,30.33,WSW,250,0.0,0.0,98,0.00,,,0.00,Wunderground v.1.15,2013-10-26 10:21:00,
2013-10-26 06:26:00,27.6,27.1,30.33,WSW,250,0.0,0.0,98,0.00,,,0.00,Wunderground v.1.15,2013-10-26 10:26:00,
2013-10-26 06:31:00,27.8,27.3,30.33,WSW,250,0.0,0.0,98,0.00,,,0.00,Wunderground v.1.15,2013-10-26 10:31:00,
2013-10-26 06:36:00,28.0,27.5,30.33,WSW,250,0.0,0.0,98,0.00,,,0.00,Wunderground v.1.15,2013-10-26 10:36:00,
2013-10-26 06:41:00,28.1,27.6,30.33,West,263,0.0,0.0,98,0.00,,,0.00,Wunderground v.1.15,2013-10-26 10:41:00,
2013-10-26 06:46:00,28.0,27.5,30.33,West,263,0.0,1.0,98,0.00,,,0.00,Wunderground v.1.15,2013-10-26 10:46:00,
2013-10-26 06:51:00,27.9,27.4,30.33,West,263,0.0,0.0,98,0.00,,,0.00,Wunderground v.1.15,2013-10-26 10:51:00,
2013-10-26 06:56:00,27.8,27.3,30.33,West,263,0.0,0.0,98,0.00,,,0.00,Wunderground v.1.15,2013-10-26 10:56:00,
2013-10-26 07:01:00,27.7,27.2,30.33,West,263,0.0,0.0,98,0.00,,,0.00,Wunderground v.1.15,2013-10-26 11:01:00,
2013-10-26 07:06:00,27.5,27.0,30.33,West,262,0.0,0.0,98,0.00,,,0.00,Wunderground v.1.15,2013-10-26 11:06:00,
2013-10-26 07:11:00,27.3,26.6,30.33,West,263,0.0,0.0,97,0.00,,,0.00,Wunderground v.1.15,2013-10-26 11:11:00,
2013-10-26 07:16:00,27.0,26.3,30.33,West,263,0.0,0.0,97,0.00,,,0.00,Wunderground v.1.15,2013-10-26 11:16:00,
2013-10-26 07:21:00,26.7,26.0,30.34,West,263,0.0,0.0,97,0.00,,,0.00,Wunderground v.1.15,2013-10-26 11:21:00,
2013-10-26 07:26:00,26.3,25.6,30.33,West,263,0.0,0.0,97,0.00,,,0.00,Wunderground v.1.15,2013-10-26 11:26:00,
2013-10-26 07:31:00,25.9,25.2,30.34,West,263,0.0,0.0,97,0.00,,,0.00,Wunderground v.1.15,2013-10-26 11:31:00,
2013-10-26 07:36:00,26.0,25.5,30.34,West,263,0.0,0.0,98,0.00,,,0.00,Wunderground v.1.15,2013-10-26 11:36:00,
2013-10-26 07:41:00,25.9,25.4,30.34,SW,232,0.0,0.0,98,0.00,,,0.00,Wunderground v.1.15,2013-10-26 11:41:00,
2013-10-26 07:46:00,25.9,25.4,30.34,WSW,238,0.0,0.0,98,0.00,,,0.00,Wunderground v.1.15,2013-10-26 11:46:00,
2013-10-26 07:51:00,25.8,25.3,30.34,WSW,238,0.0,0.0,98,0.00,,,0.00,Wunderground v.1.15,2013-10-26 11:51:00,
2013-10-26 07:56:00,25.7,25.2,30.34,WSW,238,0.0,0.0,98,0.00,,,0.00,Wunderground v.1.15,2013-10-26 11:56:00,
2013-10-26 08:01:00,25.8,25.3,30.34,WSW,238,0.0,0.0,98,0.00,,,0.00,Wunderground v.1.15,2013-10-26 12:01:00,
2013-10-26 08:06:00,25.7,25.2,30.34,WSW,238,0.0,0.0,98,0.00,,,0.00,Wunderground v.1.15,2013-10-26 12:06:00,
2013-10-26 08:11:00,25.5,25.0,30.34,WSW,238,0.0,0.0,98,0.00,,,0.00,Wunderground v.1.15,2013-10-26 12:11:00,
2013-10-26 08:16:00,25.4,24.9,30.34,WSW,238,0.0,0.0,98,0.00,,,0.00,Wunderground v.1.15,2013-10-26 12:16:00,
2013-10-26 08:21:00,25.4,24.9,30.34,WSW,238,0.0,0.0,98,0.00,,,0.00,Wunderground v.1.15,2013-10-26 12:21:00,
2013-10-26 08:26:00,25.4,24.9,30.35,WSW,238,0.0,0.0,98,0.00,,,0.00,Wunderground v.1.15,2013-10-26 12:26:00,
2013-10-26 08:31:00,25.5,25.0,30.35,WSW,238,0.0,0.0,98,0.00,,,0.00,Wunderground v.1.15,2013-10-26 12:31:00,
2013-10-26 08:36:00,25.5,25.0,30.35,WSW,238,0.0,0.0,98,0.00,,,0.00,Wunderground v.1.15,2013-10-26 12:36:00,
2013-10-26 08:41:00,25.5,25.0,30.35,WSW,237,0.0,0.0,98,0.00,,,0.00,Wunderground v.1.15,2013-10-26 12:41:00,
2013-10-26 08:46:00,26.0,25.5,30.35,WSW,238,0.0,0.0,98,0.00,,,0.00,Wunderground v.1.15,2013-10-26 12:46:00,
2013-10-26 08:51:00,26.5,26.0,30.35,WSW,239,0.0,0.0,98,0.00,,,0.00,Wunderground v.1.15,2013-10-26 12:51:00,
2013-10-26 08:56:00,26.7,26.5,30.35,WSW,239,0.0,0.0,99,0.00,,,0.00,Wunderground v.1.15,2013-10-26 12:56:00,
2013-10-26 09:01:00,27.0,26.8,30.35,WSW,240,0.0,0.0,99,0.00,,,0.00,Wunderground v.1.15,2013-10-26 13:01:00,
2013-10-26 09:06:00,27.3,27.1,30.35,WSW,239,0.0,0.0,99,0.00,,,0.00,Wunderground v.1.15,2013-10-26 13:06:00,
2013-10-26 09:11:00,27.7,27.5,30.35,WSW,239,0.0,0.0,99,0.00,,,0.00,Wunderground v.1.15,2013-10-26 13:11:00,
2013-10-26 09:16:00,28.1,27.9,30.35,WSW,239,0.0,0.0,99,0.00,,,0.00,Wunderground v.1.15,2013-10-26 13:16:00,
2013-10-26 09:21:00,28.5,28.3,30.36,WSW,239,0.0,0.0,99,0.00,,,0.00,Wunderground v.1.15,2013-10-26 13:21:00,
2013-10-26 09:26:00,28.8,28.6,30.35,WSW,239,0.0,0.0,99,0.00,,,0.00,Wunderground v.1.15,2013-10-26 13:26:00,
2013-10-26 09:31:00,29.2,29.0,30.36,WSW,239,0.0,0.0,99,0.00,,,0.00,Wunderground v.1.15,2013-10-26 13:31:00,
2013-10-26 09:36:00,29.6,29.4,30.36,WSW,239,0.0,0.0,99,0.00,,,0.00,Wunderground v.1.15,2013-10-26 13:36:00,
2013-10-26 09:41:00,30.0,29.8,30.36,WSW,239,0.0,0.0,99,0.00,,,0.00,Wunderground v.1.15,2013-10-26 13:41:00,
2013-10-26 09:46:00,30.6,30.4,30.36,WSW,239,0.0,0.0,99,0.00,,,0.00,Wunderground v.1.15,2013-10-26 13:46:00,
2013-10-26 09:51:00,31.4,31.2,30.36,West,265,0.0,1.0,99,0.00,,,0.00,Wunderground v.1.15,2013-10-26 13:51:00,
2013-10-26 09:56:00,32.1,31.9,30.36,West,269,1.0,1.0,99,0.00,,,0.00,Wunderground v.1.15,2013-10-26 13:56:00,
2013-10-26 10:01:00,32.8,32.6,30.36,WSW,241,1.0,1.0,99,0.00,,,0.00,Wunderground v.1.15,2013-10-26 14:01:00,
2013-10-26 10:06:00,33.2,33.0,30.35,WSW,246,0.0,1.0,99,0.00,,,0.00,Wunderground v.1.15,2013-10-26 14:06:00,
2013-10-26 10:11:00,34.0,33.7,30.35,West,262,1.0,1.0,99,0.00,,,0.00,Wunderground v.1.15,2013-10-26 14:11:00,
2013-10-26 10:16:00,34.7,34.4,30.35,WSW,257,0.0,1.0,99,0.00,,,0.00,Wunderground v.1.15,2013-10-26 14:16:00,
2013-10-26 10:21:00,35.4,35.4,30.35,WSW,257,0.0,1.0,100,0.00,,,0.00,Wunderground v.1.15,2013-10-26 14:21:00,
2013-10-26 10:26:00,36.0,36.0,30.35,WSW,256,0.0,2.0,100,0.00,,,0.00,Wunderground v.1.15,2013-10-26 14:26:00,
2013-10-26 10:31:00,36.6,36.6,30.35,SSW,198,3.0,3.0,100,0.00,,,0.00,Wunderground v.1.15,2013-10-26 14:31:00,
2013-10-26 10:36:00,37.0,37.0,30.35,SSW,207,2.0,3.0,100,0.00,,,0.00,Wunderground v.1.15,2013-10-26 14:36:00,
2013-10-26 10:41:00,37.5,37.5,30.34,WSW,239,1.0,1.0,100,0.00,,,0.00,Wunderground v.1.15,2013-10-26 14:41:00,
2013-10-26 10:46:00,38.0,38.0,30.34,WSW,252,0.0,3.0,100,0.00,,,0.00,Wunderground v.1.15,2013-10-26 14:46:00,
2013-10-26 10:51:00,38.5,38.5,30.34,WSW,237,4.0,6.0,100,0.00,,,0.00,Wunderground v.1.15,2013-10-26 14:51:00,
2013-10-26 10:56:00,39.1,39.1,30.34,West,262,0.0,6.0,100,0.00,,,0.00,Wunderground v.1.15,2013-10-26 14:56:00,
2013-10-26 11:01:00,39.9,39.9,30.34,SW,231,0.0,2.0,100,0.00,,,0.00,Wunderground v.1.15,2013-10-26 15:01:00,
2013-10-26 11:06:00,40.5,40.5,30.33,SSW,210,2.0,5.0,100,0.00,,,0.00,Wunderground v.1.15,2013-10-26 15:06:00,
2013-10-26 11:11:00,41.2,41.2,30.33,SW,226,4.0,4.0,100,0.00,,,0.00,Wunderground v.1.15,2013-10-26 15:11:00,
2013-10-26 11:16:00,41.7,41.4,30.33,WSW,242,6.0,7.0,99,0.00,,,0.00,Wunderground v.1.15,2013-10-26 15:16:00,
2013-10-26 11:21:00,43.1,42.3,30.33,SSW,203,1.0,3.0,97,0.00,,,0.00,Wunderground v.1.15,2013-10-26 15:21:00,
2013-10-26 11:26:00,44.3,42.1,30.32,WSW,239,4.0,4.0,92,0.00,,,0.00,Wunderground v.1.15,2013-10-26 15:26:00,
2013-10-26 11:31:00,45.2,40.3,30.32,SW,233,2.0,5.0,83,0.00,,,0.00,Wunderground v.1.15,2013-10-26 15:31:00,
2013-10-26 11:36:00,46.3,40.5,30.32,WSW,239,6.0,7.0,80,0.00,,,0.00,Wunderground v.1.15,2013-10-26 15:36:00,
2013-10-26 11:41:00,47.5,38.2,30.31,WSW,258,8.0,12.0,70,0.00,,,0.00,Wunderground v.1.15,2013-10-26 15:41:00,
2013-10-26 11:46:00,48.3,36.7,30.31,SW,231,10.0,15.0,64,0.00,,,0.00,Wunderground v.1.15,2013-10-26 15:46:00,
2013-10-26 11:51:00,49.1,36.2,30.31,West,266,10.0,13.0,61,0.00,,,0.00,Wunderground v.1.15,2013-10-26 15:51:00,
2013-10-26 11:56:00,49.6,36.3,30.30,SW,226,7.0,15.0,60,0.00,,,0.00,Wunderground v.1.15,2013-10-26 15:56:00,
2013-10-26 12:01:00,49.6,35.0,30.30,West,266,10.0,18.0,57,0.00,,,0.00,Wunderground v.1.15,2013-10-26 16:01:00,
2013-10-26 12:06:00,49.7,35.1,30.30,West,259,9.0,18.0,57,0.00,,,0.00,Wunderground v.1.15,2013-10-26 16:06:00,
2013-10-26 12:11:00,50.1,34.5,30.30,WSW,252,6.0,14.0,55,0.00,,,0.00,Wunderground v.1.15,2013-10-26 16:11:00,
2013-10-26 12:16:00,50.3,35.2,30.30,WSW,257,8.0,16.0,56,0.00,,,0.00,Wunderground v.1.15,2013-10-26 16:16:00,
2013-10-26 12:21:00,50.4,35.3,30.30,West,262,10.0,13.0,56,0.00,,,0.00,Wunderground v.1.15,2013-10-26 16:21:00,
2013-10-26 12:26:00,50.9,35.3,30.29,SW,231,8.0,13.0,55,0.00,,,0.00,Wunderground v.1.15,2013-10-26 16:26:00,
2013-10-26 12:31:00,51.4,35.3,30.29,SW,226,8.0,12.0,54,0.00,,,0.00,Wunderground v.1.15,2013-10-26 16:31:00,
2013-10-26 12:36:00,52.2,35.1,30.28,SW,221,9.0,13.0,52,0.00,,,0.00,Wunderground v.1.15,2013-10-26 16:36:00,
2013-10-26 12:41:00,52.5,34.9,30.28,WSW,252,11.0,15.0,51,0.00,,,0.00,Wunderground v.1.15,2013-10-26 16:41:00,
2013-10-26 12:46:00,52.7,34.6,30.28,West,259,11.0,16.0,50,0.00,,,0.00,Wunderground v.1.15,2013-10-26 16:46:00,
2013-10-26 12:51:00,52.7,35.1,30.27,SW,233,11.0,13.0,51,0.00,,,0.00,Wunderground v.1.15,2013-10-26 16:51:00,
2013-10-26 12:56:00,53.1,35.4,30.27,WSW,256,12.0,13.0,51,0.00,,,0.00,Wunderground v.1.15,2013-10-26 16:56:00,
2013-10-26 13:01:00,53.6,34.9,30.27,WSW,240,6.0,11.0,49,0.00,,,0.00,Wunderground v.1.15,2013-10-26 17:01:00,
2013-10-26 13:06:00,53.7,34.5,30.27,NW,308,8.0,13.0,48,0.00,,,0.00,Wunderground v.1.15,2013-10-26 17:06:00,
2013-10-26 13:11:00,53.8,34.0,30.26,WSW,239,8.0,13.0,47,0.00,,,0.00,Wunderground v.1.15,2013-10-26 17:11:00,
2013-10-26 13:16:00,54.2,35.4,30.26,West,262,11.0,15.0,49,0.00,,,0.00,Wunderground v.1.15,2013-10-26 17:16:00,
2013-10-26 13:21:00,54.6,34.8,30.25,WSW,240,10.0,12.0,47,0.00,,,0.00,Wunderground v.1.15,2013-10-26 17:21:00,
2013-10-26 13:26:00,54.4,34.6,30.25,WSW,246,13.0,15.0,47,0.00,,,0.00,Wunderground v.1.15,2013-10-26 17:26:00,
2013-10-26 13:31:00,54.5,34.1,30.25,WSW,258,8.0,13.0,46,0.00,,,0.00,Wunderground v.1.15,2013-10-26 17:31:00,
2013-10-26 13:36:00,55.0,34.6,30.24,WSW,250,7.0,13.0,46,0.00,,,0.00,Wunderground v.1.15,2013-10-26 17:36:00,
2013-10-26 13:41:00,55.4,34.4,30.24,West,262,11.0,15.0,45,0.00,,,0.00,Wunderground v.1.15,2013-10-26 17:41:00,
2013-10-26 13:46:00,55.1,34.1,30.24,West,269,11.0,15.0,45,0.00,,,0.00,Wunderground v.1.15,2013-10-26 17:46:00,
2013-10-26 13:51:00,55.3,34.3,30.24,West,276,4.0,9.0,45,0.00,,,0.00,Wunderground v.1.15,2013-10-26 17:51:00,
2013-10-26 13:56:00,55.9,34.3,30.23,WNW,282,6.0,10.0,44,0.00,,,0.00,Wunderground v.1.15,2013-10-26 17:56:00,
2013-10-26 14:01:00,56.5,34.8,30.23,SW,214,5.0,13.0,44,0.00,,,0.00,Wunderground v.1.15,2013-10-26 18:01:00,
2013-10-26 14:06:00,56.5,34.3,30.22,West,259,9.0,14.0,43,0.00,,,0.00,Wunderground v.1.15,2013-10-26 18:06:00,
2013-10-26 14:11:00,56.6,33.2,30.23,WSW,255,9.0,14.0,41,0.00,,,0.00,Wunderground v.1.15,2013-10-26 18:11:00,
2013-10-26 14:16:00,57.2,34.3,30.22,NW,304,4.0,14.0,42,0.00,,,0.00,Wunderground v.1.15,2013-10-26 18:16:00,
2013-10-26 14:21:00,57.2,33.1,30.22,West,262,9.0,13.0,40,0.00,,,0.00,Wunderground v.1.15,2013-10-26 18:21:00,
2013-10-26 14:26:00,57.2,33.7,30.22,WSW,258,8.0,13.0,41,0.00,,,0.00,Wunderground v.1.15,2013-10-26 18:26:00,
2013-10-26 14:31:00,57.1,33.0,30.21,West,264,8.0,13.0,40,0.00,,,0.00,Wunderground v.1.15,2013-10-26 18:31:00,
2013-10-26 14:36:00,57.0,32.9,30.21,WSW,256,9.0,14.0,40,0.00,,,0.00,Wunderground v.1.15,2013-10-26 18:36:00,
2013-10-26 14:41:00,57.1,32.4,30.21,West,280,6.0,8.0,39,0.00,,,0.00,Wunderground v.1.15,2013-10-26 18:41:00,
2013-10-26 14:46:00,57.3,32.5,30.20,West,266,6.0,14.0,39,0.00,,,0.00,Wunderground v.1.15,2013-10-26 18:46:00,
2013-10-26 14:51:00,57.5,33.3,30.20,West,267,6.0,8.0,40,0.00,,,0.00,Wunderground v.1.15,2013-10-26 18:51:00,
2013-10-26 14:56:00,57.2,33.1,30.20,WSW,248,4.0,11.0,40,0.00,,,0.00,Wunderground v.1.15,2013-10-26 18:56:00,
2013-10-26 15:01:00,57.0,32.9,30.20,West,267,6.0,7.0,40,0.00,,,0.00,Wunderground v.1.15,2013-10-26 19:01:00,
2013-10-26 15:06:00,57.5,33.3,30.20,NW,323,2.0,8.0,40,0.00,,,0.00,Wunderground v.1.15,2013-10-26 19:06:00,
2013-10-26 15:11:00,58.3,33.4,30.20,WSW,242,5.0,10.0,39,0.00,,,0.00,Wunderground v.1.15,2013-10-26 19:11:00,
2013-10-26 15:16:00,59.0,33.4,30.19,WSW,246,9.0,12.0,38,0.00,,,0.00,Wunderground v.1.15,2013-10-26 19:16:00,
2013-10-26 15:21:00,59.3,32.3,30.19,WSW,248,6.0,9.0,36,0.00,,,0.00,Wunderground v.1.15,2013-10-26 19:21:00,
2013-10-26 15:26:00,59.4,31.7,30.19,WSW,250,14.0,15.0,35,0.00,,,0.00,Wunderground v.1.15,2013-10-26 19:26:00,
2013-10-26 15:31:00,59.6,31.9,30.19,WSW,248,10.0,13.0,35,0.00,,,0.00,Wunderground v.1.15,2013-10-26 19:31:00,
2013-10-26 15:36:00,59.3,32.3,30.19,WNW,284,9.0,13.0,36,0.00,,,0.00,Wunderground v.1.15,2013-10-26 19:36:00,
2013-10-26 15:41:00,59.5,32.5,30.19,SW,235,10.0,10.0,36,0.00,,,0.00,Wunderground v.1.15,2013-10-26 19:41:00,
2013-10-26 15:46:00,59.8,32.1,30.19,West,281,6.0,14.0,35,0.00,,,0.00,Wunderground v.1.15,2013-10-26 19:46:00,
2013-10-26 15:51:00,60.1,32.3,30.19,WSW,257,12.0,15.0,35,0.00,,,0.00,Wunderground v.1.15,2013-10-26 19:51:00,
2013-10-26 15:56:00,60.0,32.2,30.18,WSW,248,12.0,15.0,35,0.00,,,0.00,Wunderground v.1.15,2013-10-26 19:56:00,
2013-10-26 16:01:00,60.1,33.0,30.18,WSW,239,10.0,12.0,36,0.00,,,0.00,Wunderground v.1.15,2013-10-26 20:01:00,
2013-10-26 16:06:00,59.7,32.7,30.18,WSW,256,9.0,14.0,36,0.00,,,0.00,Wunderground v.1.15,2013-10-26 20:06:00,
2013-10-26 16:11:00,59.7,32.0,30.18,WSW,243,8.0,9.0,35,0.00,,,0.00,Wunderground v.1.15,2013-10-26 20:11:00,
2013-10-26 16:16:00,59.3,32.3,30.17,WSW,252,8.0,12.0,36,0.00,,,0.00,Wunderground v.1.15,2013-10-26 20:16:00,
2013-10-26 16:21:00,59.5,33.2,30.17,WSW,242,6.0,11.0,37,0.00,,,0.00,Wunderground v.1.15,2013-10-26 20:21:00,
2013-10-26 16:26:00,59.2,32.2,30.16,WSW,250,10.0,17.0,36,0.00,,,0.00,Wunderground v.1.15,2013-10-26 20:26:00,
2013-10-26 16:31:00,58.9,32.0,30.17,SW,224,5.0,12.0,36,0.00,,,0.00,Wunderground v.1.15,2013-10-26 20:31:00,
2013-10-26 16:36:00,59.0,32.1,30.17,West,259,6.0,12.0,36,0.00,,,0.00,Wunderground v.1.15,2013-10-26 20:36:00,
2013-10-26 16:41:00,58.9,32.7,30.17,WSW,255,9.0,9.0,37,0.00,,,0.00,Wunderground v.1.15,2013-10-26 20:41:00,
2013-10-26 16:46:00,59.1,32.8,30.17,WSW,257,7.0,13.0,37,0.00,,,0.00,Wunderground v.1.15,2013-10-26 20:46:00,
2013-10-26 16:51:00,59.5,33.9,30.16,WSW,242,9.0,9.0,38,0.00,,,0.00,Wunderground v.1.15,2013-10-26 20:51:00,
2013-10-26 16:56:00,60.1,34.4,30.16,WSW,253,11.0,12.0,38,0.00,,,0.00,Wunderground v.1.15,2013-10-26 20:56:00,
2013-10-26 17:01:00,59.8,33.5,30.16,SW,236,10.0,12.0,37,0.00,,,0.00,Wunderground v.1.15,2013-10-26 21:01:00,
2013-10-26 17:06:00,59.2,33.6,30.16,WSW,255,11.0,13.0,38,0.00,,,0.00,Wunderground v.1.15,2013-10-26 21:06:00,
2013-10-26 17:11:00,58.8,33.9,30.16,WSW,255,7.0,12.0,39,0.00,,,0.00,Wunderground v.1.15,2013-10-26 21:11:00,
2013-10-26 17:16:00,58.4,34.2,30.16,WSW,250,3.0,12.0,40,0.00,,,0.00,Wunderground v.1.15,2013-10-26 21:16:00,
2013-10-26 17:21:00,58.2,34.0,30.16,SW,229,5.0,8.0,40,0.00,,,0.00,Wunderground v.1.15,2013-10-26 21:21:00,
2013-10-26 17:26:00,58.0,33.8,30.16,WSW,248,3.0,11.0,40,0.00,,,0.00,Wunderground v.1.15,2013-10-26 21:26:00,
2013-10-26 17:31:00,57.9,33.7,30.16,WSW,256,7.0,10.0,40,0.00,,,0.00,Wunderground v.1.15,2013-10-26 21:31:00,
2013-10-26 17:36:00,57.8,34.2,30.16,West,264,6.0,12.0,41,0.00,,,0.00,Wunderground v.1.15,2013-10-26 21:36:00,
2013-10-26 17:41:00,57.8,34.2,30.16,WSW,252,7.0,9.0,41,0.00,,,0.00,Wunderground v.1.15,2013-10-26 21:41:00,
2013-10-26 17:46:00,57.8,34.2,30.16,WSW,257,6.0,12.0,41,0.00,,,0.00,Wunderground v.1.15,2013-10-26 21:46:00,
2013-10-26 17:51:00,57.8,34.2,30.16,WSW,242,4.0,7.0,41,0.00,,,0.00,Wunderground v.1.15,2013-10-26 21:51:00,
2013-10-26 17:56:00,57.8,34.8,30.16,WSW,253,5.0,9.0,42,0.00,,,0.00,Wunderground v.1.15,2013-10-26 21:56:00,
2013-10-26 18:01:00,57.7,34.1,30.16,West,262,9.0,10.0,41,0.00,,,0.00,Wunderground v.1.15,2013-10-26 22:01:00,
2013-10-26 18:06:00,57.5,34.6,30.16,West,259,5.0,10.0,42,0.00,,,0.00,Wunderground v.1.15,2013-10-26 22:06:00,
2013-10-26 18:11:00,57.2,34.9,30.16,WSW,250,5.0,6.0,43,0.00,,,0.00,Wunderground v.1.15,2013-10-26 22:11:00,
2013-10-26 18:16:00,56.9,34.6,30.16,SW,217,7.0,10.0,43,0.00,,,0.00,Wunderground v.1.15,2013-10-26 22:16:00,
2013-10-26 18:21:00,56.6,34.9,30.16,WSW,253,7.0,9.0,44,0.00,,,0.00,Wunderground v.1.15,2013-10-26 22:21:00,
2013-10-26 18:26:00,56.4,34.7,30.15,WSW,250,5.0,10.0,44,0.00,,,0.00,Wunderground v.1.15,2013-10-26 22:26:00,
2013-10-26 18:31:00,56.1,35.6,30.15,West,265,6.0,7.0,46,0.00,,,0.00,Wunderground v.1.15,2013-10-26 22:31:00,
2013-10-26 18:36:00,55.8,34.8,30.15,SSW,208,4.0,9.0,45,0.00,,,0.00,Wunderground v.1.15,2013-10-26 22:36:00,
2013-10-26 18:41:00,55.7,35.2,30.15,WSW,255,3.0,5.0,46,0.00,,,0.00,Wunderground v.1.15,2013-10-26 22:41:00,
2013-10-26 18:46:00,55.5,35.0,30.15,WSW,257,2.0,7.0,46,0.00,,,0.00,Wunderground v.1.15,2013-10-26 22:46:00,
2013-10-26 18:51:00,55.3,34.9,30.15,WSW,243,4.0,6.0,46,0.00,,,0.00,Wunderground v.1.15,2013-10-26 22:51:00,
2013-10-26 18:56:00,55.1,35.2,30.15,WSW,250,2.0,8.0,47,0.00,,,0.00,Wunderground v.1.15,2013-10-26 22:56:00,
2013-10-26 19:01:00,54.9,35.0,30.15,WSW,253,5.0,7.0,47,0.00,,,0.00,Wunderground v.1.15,2013-10-26 23:01:00,
2013-10-26 19:06:00,54.8,34.9,30.15,West,263,4.0,10.0,47,0.00,,,0.00,Wunderground v.1.15,2013-10-26 23:06:00,
2013-10-26 19:11:00,54.6,34.8,30.15,WSW,245,3.0,6.0,47,0.00,,,0.00,Wunderground v.1.15,2013-10-26 23:11:00,
2013-10-26 19:16:00,54.5,35.2,30.15,WSW,258,3.0,6.0,48,0.00,,,0.00,Wunderground v.1.15,2013-10-26 23:16:00,
2013-10-26 19:21:00,54.2,34.9,30.14,WSW,248,3.0,5.0,48,0.00,,,0.00,Wunderground v.1.15,2013-10-26 23:21:00,
2013-10-26 19:26:00,53.9,35.2,30.14,SW,217,2.0,6.0,49,0.00,,,0.00,Wunderground v.1.15,2013-10-26 23:26:00,
2013-10-26 19:31:00,53.6,34.9,30.14,WSW,243,1.0,3.0,49,0.00,,,0.00,Wunderground v.1.15,2013-10-26 23:31:00,
2013-10-26 19:36:00,53.3,34.6,30.15,WSW,253,2.0,4.0,49,0.00,,,0.00,Wunderground v.1.15,2013-10-26 23:36:00,
2013-10-26 19:41:00,53.3,35.1,30.15,WSW,255,1.0,2.0,50,0.00,,,0.00,Wunderground v.1.15,2013-10-26 23:41:00,
2013-10-26 19:46:00,53.1,34.9,30.15,WSW,242,2.0,3.0,50,0.00,,,0.00,Wunderground v.1.15,2013-10-26 23:46:00,
2013-10-26 19:51:00,53.0,34.8,30.15,WSW,239,4.0,6.0,50,0.00,,,0.00,Wunderground v.1.15,2013-10-26 23:51:00,
2013-10-26 19:56:00,52.5,35.4,30.16,West,267,1.0,6.0,52,0.00,,,0.00,Wunderground v.1.15,2013-10-26 23:56:00,
2013-10-26 20:01:00,51.8,35.7,30.16,West,270,2.0,2.0,54,0.00,,,0.00,Wunderground v.1.15,2013-10-27 00:01:00,
2013-10-26 20:06:00,51.7,35.6,30.16,WSW,256,1.0,3.0,54,0.00,,,0.00,Wunderground v.1.15,2013-10-27 00:06:00,
2013-10-26 20:11:00,51.7,35.6,30.16,WSW,253,3.0,3.0,54,0.00,,,0.00,Wunderground v.1.15,2013-10-27 00:11:00,
2013-10-26 20:16:00,51.7,36.5,30.16,WSW,242,3.0,3.0,56,0.00,,,0.00,Wunderground v.1.15,2013-10-27 00:16:00,
2013-10-26 20:21:00,51.8,36.1,30.15,WSW,239,4.0,4.0,55,0.00,,,0.00,Wunderground v.1.15,2013-10-27 00:21:00,
2013-10-26 20:26:00,52.0,36.3,30.16,SW,236,3.0,5.0,55,0.00,,,0.00,Wunderground v.1.15,2013-10-27 00:26:00,
2013-10-26 20:31:00,52.1,36.4,30.15,WSW,243,2.0,4.0,55,0.00,,,0.00,Wunderground v.1.15,2013-10-27 00:31:00,
2013-10-26 20:36:00,52.1,36.4,30.15,WSW,256,2.0,4.0,55,0.00,,,0.00,Wunderground v.1.15,2013-10-27 00:36:00,
2013-10-26 20:41:00,52.1,36.4,30.15,WSW,253,1.0,3.0,55,0.00,,,0.00,Wunderground v.1.15,2013-10-27 00:41:00,
2013-10-26 20:46:00,51.9,36.7,30.15,WSW,242,1.0,3.0,56,0.00,,,0.00,Wunderground v.1.15,2013-10-27 00:46:00,
2013-10-26 20:51:00,51.6,36.4,30.16,WSW,248,1.0,1.0,56,0.00,,,0.00,Wunderground v.1.15,2013-10-27 00:51:00,
2013-10-26 20:56:00,51.3,36.6,30.16,West,264,0.0,1.0,57,0.00,,,0.00,Wunderground v.1.15,2013-10-27 00:56:00,
2013-10-26 21:01:00,51.0,36.3,30.16,WSW,255,1.0,1.0,57,0.00,,,0.00,Wunderground v.1.15,2013-10-27 01:01:00,
2013-10-26 21:06:00,50.9,36.2,30.15,WSW,257,3.0,3.0,57,0.00,,,0.00,Wunderground v.1.15,2013-10-27 01:06:00,
2013-10-26 21:11:00,50.8,36.5,30.16,West,262,0.0,1.0,58,0.00,,,0.00,Wunderground v.1.15,2013-10-27 01:11:00,
2013-10-26 21:16:00,50.8,36.5,30.16,East,101,0.0,2.0,58,0.00,,,0.00,Wunderground v.1.15,2013-10-27 01:16:00,
2013-10-26 21:21:00,50.8,36.5,30.16,East,101,0.0,0.0,58,0.00,,,0.00,Wunderground v.1.15,2013-10-27 01:21:00,
2013-10-26 21:26:00,50.6,36.4,30.16,SSE,161,0.0,0.0,58,0.00,,,0.00,Wunderground v.1.15,2013-10-27 01:26:00,
2013-10-26 21:31:00,50.4,36.2,30.16,SSE,161,0.0,0.0,58,0.00,,,0.00,Wunderground v.1.15,2013-10-27 01:31:00,
2013-10-26 21:36:00,50.3,36.1,30.16,SSE,160,0.0,0.0,58,0.00,,,0.00,Wunderground v.1.15,2013-10-27 01:36:00,
2013-10-26 21:41:00,50.3,36.1,30.16,South,169,0.0,0.0,58,0.00,,,0.00,Wunderground v.1.15,2013-10-27 01:41:00,
2013-10-26 21:46:00,50.2,36.4,30.16,South,169,0.0,0.0,59,0.00,,,0.00,Wunderground v.1.15,2013-10-27 01:46:00,
2013-10-26 21:51:00,50.2,37.3,30.16,WSW,252,1.0,1.0,61,0.00,,,0.00,Wunderground v.1.15,2013-10-27 01:51:00,
2013-10-26 21:56:00,50.0,37.5,30.16,WSW,253,1.0,2.0,62,0.00,,,0.00,Wunderground v.1.15,2013-10-27 01:56:00,
2013-10-26 22:01:00,49.8,38.5,30.16,West,263,1.0,1.0,65,0.00,,,0.00,Wunderground v.1.15,2013-10-27 02:01:00,
2013-10-26 22:06:00,49.6,37.9,30.16,WSW,257,1.0,2.0,64,0.00,,,0.00,Wunderground v.1.15,2013-10-27 02:06:00,
2013-10-26 22:11:00,49.5,38.2,30.16,WSW,257,1.0,2.0,65,0.00,,,0.00,Wunderground v.1.15,2013-10-27 02:11:00,
2013-10-26 22:16:00,49.3,38.4,30.16,WSW,255,1.0,2.0,66,0.00,,,0.00,Wunderground v.1.15,2013-10-27 02:16:00,
2013-10-26 22:21:00,49.2,37.5,30.16,WSW,245,1.0,1.0,64,0.00,,,0.00,Wunderground v.1.15,2013-10-27 02:21:00,
2013-10-26 22:26:00,49.5,37.4,30.15,WSW,241,2.0,4.0,63,0.00,,,0.00,Wunderground v.1.15,2013-10-27 02:26:00,
2013-10-26 22:31:00,50.1,36.3,30.14,WSW,245,6.0,8.0,59,0.00,,,0.00,Wunderground v.1.15,2013-10-27 02:31:00,
2013-10-26 22:36:00,51.0,35.4,30.14,WSW,242,6.0,11.0,55,0.00,,,0.00,Wunderground v.1.15,2013-10-27 02:36:00,
2013-10-26 22:41:00,51.7,35.1,30.14,SW,233,5.0,9.0,53,0.00,,,0.00,Wunderground v.1.15,2013-10-27 02:41:00,
2013-10-26 22:46:00,52.1,35.5,30.15,West,270,4.0,9.0,53,0.00,,,0.00,Wunderground v.1.15,2013-10-27 02:46:00,
2013-10-26 22:51:00,52.4,35.3,30.15,SW,236,4.0,6.0,52,0.00,,,0.00,Wunderground v.1.15,2013-10-27 02:51:00,
2013-10-26 22:56:00,52.6,35.5,30.15,WSW,255,3.0,7.0,52,0.00,,,0.00,Wunderground v.1.15,2013-10-27 02:56:00,
2013-10-26 23:01:00,52.7,35.1,30.15,WSW,252,3.0,5.0,51,0.00,,,0.00,Wunderground v.1.15,2013-10-27 03:01:00,
2013-10-26 23:06:00,52.8,35.2,30.15,WSW,255,2.0,5.0,51,0.00,,,0.00,Wunderground v.1.15,2013-10-27 03:06:00,
2013-10-26 23:11:00,52.8,35.2,30.15,WSW,246,2.0,3.0,51,0.00,,,0.00,Wunderground v.1.15,2013-10-27 03:11:00,
2013-10-26 23:16:00,52.8,35.6,30.15,WSW,253,3.0,3.0,52,0.00,,,0.00,Wunderground v.1.15,2013-10-27 03:16:00,
2013-10-26 23:21:00,52.8,35.2,30.15,WSW,250,2.0,3.0,51,0.00,,,0.00,Wunderground v.1.15,2013-10-27 03:21:00,
2013-10-26 23:26:00,52.9,35.2,30.16,WSW,246,1.0,3.0,51,0.00,,,0.00,Wunderground v.1.15,2013-10-27 03:26:00,
2013-10-26 23:31:00,52.9,35.7,30.16,WSW,248,0.0,1.0,52,0.00,,,0.00,Wunderground v.1.15,2013-10-27 03:31:00,
2013-10-26 23:36:00,52.9,35.2,30.16,WSW,248,2.0,3.0,51,0.00,,,0.00,Wunderground v.1.15,2013-10-27 03:36:00,
2013-10-26 23:41:00,53.0,35.3,30.16,West,261,1.0,2.0,51,0.00,,,0.00,Wunderground v.1.15,2013-10-27 03:41:00,
2013-10-26 23:46:00,53.2,35.5,30.16,West,280,2.0,3.0,51,0.00,,,0.00,Wunderground v.1.15,2013-10-27 03:46:00,
2013-10-26 23:51:00,53.3,35.1,30.17,West,259,0.0,1.0,50,0.00,,,0.00,Wunderground v.1.15,2013-10-27 03:51:00,
2013-10-26 23:56:00,53.3,35.1,30.17,West,278,0.0,2.0,50,0.00,,,0.00,Wunderground v.1.15,2013-10-27 03:56:00,